South Burlington, VT

6:49 PM EST on February 08, 2016 (GMT -0500)
Burlington International

Weather History for KBTV - January, 2014

Change the Weather History Date:

Monday, January 6, 2014

  Actual Average Record
Temperature  
Mean Temperature 36 °F 19 °F  
Max Temperature 51 °F 28 °F 62 °F (2007)
Min Temperature 20 °F 11 °F -23 °F (1996)
Degree Days  
Heating Degree Days 29 46  
Month to date heating degree days 332 272  
Since 1 July heating degree days 3105 3031  
Cooling Degree Days 0 0  
Month to date cooling degree days 0 0  
Year to date cooling degree days 0 0  
Moisture  
Dew Point 32 °F    
Average Humidity 70    
Maximum Humidity 93    
Minimum Humidity 47    
Precipitation  
Precipitation 0.55 in 0.07 in 0.83 in (1931)
Month to date precipitation 0.78 0.40  
Year to date precipitation 0.78 0.40  
Snow  
Snow 0.00 in 0.70 in 13.30 in (1931)
Month to date snowfall 2.7 4.1  
Since 1 July snowfall 24.4 27.4  
Snow Depth 6.00 in    
Sea Level Pressure  
Sea Level Pressure 29.40 in    
Wind  
Wind Speed 12 mph (SW)    
Max Wind Speed 22 mph    
Max Gust Speed 33 mph    
Visibility 7 miles    
Events Rain    
T = Trace of Precipitation, MM = Missing Value Source: NWS Daily Summary

Daily Weather History Graph

Daily Weather History Graph

Search for Another Location

Airport or City:

Trip Planner

Search our weather history database for the weather conditions in past years. The results will help you decide how hot, cold, wet, or windy it might be!

Date:

Astronomy

Jan. 06, 2014 Rise Set
Actual Time 7:28 AM EST 4:28 PM EST
Civil Twilight 6:55 AM EST 5:01 PM EST
Nautical Twilight 6:19 AM EST 5:38 PM EST
Astronomical Twilight 5:44 AM EST 6:13 PM EST
Moon 10:27 AM EST (1/6) 11:15 PM EST (1/6)
Length of Visible Light 10h 05m
Length of Day
8h 59m
Waxing Crescent, 34% of the Moon is Illuminated
Jan 6
Waxing Crescent
Jan 7
First Quarter
Jan 15
Full
Jan 24
Last Quarter
Jan 30
New

Hourly Weather History & Observations

Time (EST) Temp. Windchill Dew Point Humidity Pressure Visibility Wind Dir Wind Speed Gust Speed Precip Events Conditions
12:21 AM 34.0 °F 28.8 °F 30.9 °F 89% 29.69 in 8.0 mi SSW 5.8 mph - 0.01 in Rain Light Rain
12:44 AM 34.0 °F 29.8 °F 30.9 °F 89% 29.65 in 8.0 mi SSE 4.6 mph - 0.01 in Rain Light Rain
12:54 AM 34.0 °F 28.8 °F 30.9 °F 89% 29.66 in 9.0 mi SSE 5.8 mph - 0.01 in   Overcast
1:54 AM 34.0 °F - 33.1 °F 96% 29.60 in 6.0 mi Calm Calm - 0.02 in Rain Light Rain
2:54 AM 36.0 °F 30.3 °F 34.0 °F 93% 29.55 in 5.0 mi SW 6.9 mph - 0.03 in Rain Light Rain
3:54 AM 37.9 °F 33.5 °F 36.0 °F 93% 29.48 in 7.0 mi SSW 5.8 mph - 0.01 in   Overcast
4:01 AM 37.9 °F 33.5 °F 37.0 °F 97% 29.45 in 8.0 mi South 5.8 mph - N/A   Overcast
4:11 AM 37.9 °F - 37.0 °F 97% 29.45 in 9.0 mi Calm Calm - N/A   Overcast
4:29 AM 36.0 °F - 34.0 °F 93% 29.41 in 1.8 mi Calm Calm - N/A   Overcast
4:37 AM 35.1 °F - 34.0 °F 96% 29.40 in 1.0 mi Calm Calm - N/A   Overcast
4:50 AM 37.4 °F 34.9 °F 35.6 °F 93% 29.38 in 2.0 mi SSW 3.5 mph - N/A   Overcast
4:54 AM 37.9 °F 34.4 °F 36.0 °F 93% 29.39 in 4.0 mi SSW 4.6 mph - N/A   Overcast
5:54 AM 42.1 °F 38.4 °F 39.9 °F 92% 29.33 in 10.0 mi SSW 5.8 mph - 0.00 in   Overcast
6:54 AM 50.0 °F - 45.0 °F 83% 29.29 in 10.0 mi South 13.8 mph - 0.00 in   Overcast
7:43 AM 51.1 °F - 46.0 °F 83% 29.27 in 7.0 mi SSW 13.8 mph 25.3 mph 0.03 in Rain Light Rain
7:54 AM 48.9 °F - 46.0 °F 90% 29.27 in 6.0 mi SSW 17.3 mph 25.3 mph 0.05 in Rain Rain
8:13 AM 48.0 °F - 45.0 °F 89% 29.25 in 3.0 mi South 13.8 mph - 0.05 in Rain Light Rain
8:23 AM 48.0 °F - 46.0 °F 93% 29.24 in 2.5 mi SW 11.5 mph - 0.09 in Rain Rain
8:32 AM 48.9 °F - 46.0 °F 90% 29.22 in 3.0 mi SSW 13.8 mph 23.0 mph 0.10 in Rain Light Rain
8:49 AM 48.2 °F - 46.4 °F 93% 29.21 in 4.0 mi SSW 11.5 mph - 0.16 in Rain Rain
8:54 AM 48.9 °F - 46.0 °F 90% 29.23 in 4.0 mi SW 12.7 mph - 0.17 in Rain Rain
8:59 AM 48.0 °F - 46.0 °F 93% 29.22 in 1.5 mi SSW 13.8 mph - 0.02 in Rain Heavy Rain
9:30 AM 48.9 °F - 46.9 °F 93% 29.24 in 5.0 mi South 9.2 mph - 0.11 in Rain Rain
9:46 AM 46.9 °F - 46.0 °F 97% 29.25 in 2.5 mi WNW 9.2 mph - 0.13 in Rain Light Rain
9:54 AM 48.0 °F - 46.0 °F 93% 29.29 in 5.0 mi SW 10.4 mph 26.5 mph 0.14 in Rain Light Rain
10:04 AM 46.9 °F - 46.0 °F 97% 29.26 in 10.0 mi SSW 11.5 mph - 0.00 in Rain Light Rain
10:54 AM 46.0 °F 39.6 °F 41.0 °F 83% 29.27 in 6.0 mi South 15.0 mph - 0.03 in Rain Light Rain
11:54 AM 42.1 °F 35.7 °F 37.0 °F 82% 29.31 in 10.0 mi West 11.5 mph - 0.06 in Rain Light Rain
12:07 PM 41.0 °F 34.3 °F 35.1 °F 79% 29.31 in 3.0 mi West 11.5 mph 21.9 mph 0.02 in Rain Light Rain
12:36 PM 39.0 °F 31.4 °F 28.9 °F 67% 29.32 in 10.0 mi West 12.7 mph 23.0 mph 0.03 in   Overcast
12:54 PM 39.0 °F 31.0 °F 28.0 °F 65% 29.33 in 10.0 mi West 13.8 mph 18.4 mph 0.03 in   Mostly Cloudy
1:54 PM 37.0 °F 27.4 °F 23.0 °F 57% 29.36 in 10.0 mi West 17.3 mph 29.9 mph N/A   Mostly Cloudy
2:54 PM 35.1 °F 23.8 °F 18.0 °F 50% 29.40 in 10.0 mi West 20.7 mph 31.1 mph N/A   Scattered Clouds
3:54 PM 34.0 °F 25.0 °F 18.0 °F 52% 29.43 in 10.0 mi WSW 12.7 mph 20.7 mph N/A   Scattered Clouds
4:54 PM 32.0 °F 23.6 °F 16.0 °F 52% 29.45 in 10.0 mi West 10.4 mph 20.7 mph N/A   Scattered Clouds
5:54 PM 30.0 °F 19.1 °F 14.0 °F 51% 29.47 in 10.0 mi West 15.0 mph 20.7 mph N/A   Mostly Cloudy
6:54 PM 28.0 °F 16.1 °F 12.0 °F 51% 29.48 in 10.0 mi WNW 16.1 mph 29.9 mph N/A   Mostly Cloudy
7:54 PM 28.0 °F 17.0 °F 12.0 °F 51% 29.49 in 10.0 mi WNW 13.8 mph 23.0 mph N/A   Overcast
8:54 PM 27.0 °F 19.5 °F 12.0 °F 53% 29.48 in 10.0 mi WNW 6.9 mph - N/A   Overcast
9:54 PM 26.1 °F 15.6 °F 10.0 °F 51% 29.49 in 10.0 mi West 11.5 mph 23.0 mph N/A   Mostly Cloudy
10:54 PM 24.1 °F 9.4 °F 8.1 °F 51% 29.50 in 10.0 mi West 20.7 mph 27.6 mph N/A   Overcast
11:54 PM 19.9 °F 3.9 °F 3.9 °F 50% 29.53 in 10.0 mi West 20.7 mph 33.4 mph N/A   Overcast